Find Starlink 35632

NORAD ID: 66129 Int'l Des: 2025-237 Owner: SPXS Country: US Constellation: starlink operational
LEOCIRCULAR

Current View

Loading 3D Globe...

About Starlink 35632

Description loading...

Upcoming Passes

Passes for default location (London). Set your location on the main map for personalized predictions.

Altitude History

Loading altitude history...

Two-Line Element Set

1 66129U 25237R 26146.11925051 .00030248 00000-0 10293-2 0 9990
2 66129 53.1591 40.0908 0000773 82.2524 277.8564 15.30198711 34463
Epoch: May 26, 2026 • Age: 10 hours

Current Status

Altitude 479.2 km
Velocity 7.63 km/s
Sub-Earth Point 44.32°N, 12.86°E
Launch Date Oct 22, 2025
Age 0.5 years
Type internet

Technical Details

Classification Payload
Mass 575.00 kg
Dry Mass 530.00 kg
Total Mass 575.00 kg
Length 0.30 m
Diameter 4.10 m
Span 29.00 m
Shape Box + pan
Manufacturer SPXS
Bus Type Starlink V2MO
Phase Status In Orbit
Owner/State SPXS/US

Most Searched